[[{"header":{"parameterUnit":"m.s-1","parameterCategory":1,"la1":30.2991,"la2":30.254,"lo1":-89.0895,"lo2":-89.0444,"dy":0.0017,"dx":0.0017,"nx":28,"ny":28,"refTime":"2024-02-02T03:00:00:Z","depth":0,"parameterNumber":2,"parameterNumberName":"U-component_of_WINDS"},"data":[0,0,0,0,0,0,0,0,0,0,0,0,0,0,0,0,0,0,0,0,0,0,0,0,0,0,0,0,0,0,0,0,0,0,0,0,0,0,0,0,0,0,0,0,0,0,0,0,0,0,0,0,0,0,0,0,0,0,0.0893,0.0894,0,0.1003,0.1004,0.1005,0.1064,0.1064,0.1064,0.1064,0.1178,0.1181,0.1184,0,0,0,0,0,0,0,0,0,0,0,0,0,0.0734,0.0737,0.0893,0.0895,0.0896,0.1003,0.1004,0.1006,0.1064,0.1064,0.1064,0.1064,0.1177,0.118,0.1184,0,0,0,0,0,0,0,0,0,0,0,0,0,0.0819,0.0738,0.0893,0.0938,0.0943,0.1002,0.1004,0.1006,0.1064,0.1064,0.1064,0.1064,0.1176,0.118,0.1184,0.1208,0,0,0.1198,0.12,0,0,0,0,0,0,0,0,0.0815,0.0825,0.093,0.0935,0.0941,0.102,0.099,0.1074,0.1064,0.1018,0.1064,0.1064,0.1125,0.1134,0.1154,0.1213,0.1218,0.1198,0.1201,0.1203,0.1204,0,0,0,0,0,0,0,0.0809,0.0821,0.0937,0.0931,0.0938,0.0952,0.0965,0.1006,0.1069,0.1022,0.1026,0.1039,0.1128,0.115,0.1157,0.122,0.1198,0.1202,0.1204,0.1206,0.1302,0.1302,0,0,0,0,0,0,0.0795,0.0816,0.0933,0.094,0.0877,0.0955,0.0969,0.0994,0.1069,0.1081,0.1038,0.1041,0.1142,0.1152,0.1161,0.1193,0.1203,0.1207,0.1209,0.1302,0.1302,0.1302,0,0,0,0,0,0,0.0792,0.0805,0.0929,0.0879,0.0896,0.0958,0.0986,0.0996,0.1018,0.1081,0.1093,0.1049,0.1143,0.1155,0.1195,0.1198,0.1209,0.1213,0.1302,0.1302,0.1302,0.1257,0,0,0,0,0,0,0.0787,0.0804,0.0813,0.0879,0.0898,0.0961,0.0986,0.0998,0.1025,0.1029,0.1094,0.1105,0.1144,0.1188,0.12,0.1204,0.1216,0.1302,0.1302,0.1302,0.1258,0.1255,0.1252,0,0,0,0,0,0.0781,0.0797,0.0814,0.0828,0.0912,0.0961,0.0972,0.1016,0.1025,0.1035,0.1076,0.1103,0.1195,0.1192,0.1205,0.1211,0.1302,0.1302,0.1302,0.126,0.1256,0.1252,0,0,0,0,0,0,0.0731,0.0806,0.0826,0.0863,0.0905,0.0971,0.0985,0.1011,0.1051,0.1054,0.1107,0.1121,0.1156,0.1188,0.1182,0.1237,0.1252,0.1254,0.1215,0.1212,0.1209,0.12,0.122,0,0,0,0,0,0.0724,0.0758,0.0822,0.0849,0.0869,0.0923,0.0946,0.0976,0.1022,0.104,0.1084,0.1127,0.1166,0.1191,0.123,0.1263,0.1277,0.1273,0.127,0.1267,0.1269,0.1287,0.1286,0.1301,0.1301,0.1301,0,0,0.0711,0.0756,0.0775,0.084,0.0876,0.0909,0.0938,0.0972,0.0997,0.1046,0.1086,0.1119,0.1171,0.1207,0.1225,0.1235,0.1267,0.1267,0.1264,0.1268,0.1287,0.1285,0.1284,0.1301,0.1301,0.1301,0,0,0.0704,0.0742,0.0768,0.0803,0.0856,0.0892,0.0898,0.0959,0.0983,0.1024,0.106,0.1091,0.1157,0.1192,0.1219,0.1222,0.1248,0.1233,0.1218,0.1235,0.1234,0.1233,0.1234,0.1233,0.1235,0.1235,0.1234,0,0.0681,0.0733,0.0778,0.081,0.0837,0.0881,0.0907,0.0939,0.1003,0.1021,0.103,0.1112,0.1151,0.1195,0.1195,0.1216,0.1224,0.1227,0.123,0.123,0.123,0.1231,0.1231,0.1232,0.1233,0.1233,0.1233,0,0.0701,0.0736,0.075,0.081,0.0839,0.0868,0.0917,0.0941,0.0967,0.1002,0.1042,0.1089,0.1138,0.1151,0.1178,0.1199,0.1203,0.122,0.1236,0.1225,0.1227,0.1228,0.1229,0.123,0.1231,0.1231,0,0,0.0667,0.075,0.0754,0.0781,0.0842,0.087,0.09,0.0948,0.0966,0.1008,0.1035,0.1089,0.1105,0.1135,0.1166,0.1181,0.1179,0.1197,0.1199,0.1192,0.1204,0.119,0.119,0.1197,0.1197,0.1197,0.1199,0,0.0668,0.0725,0.0765,0.0806,0.0838,0.0879,0.0905,0.0946,0.0978,0.101,0.1046,0.1083,0.1102,0.112,0.1137,0.1176,0.1182,0.1176,0.1222,0.1223,0.1207,0.1191,0.1177,0.1177,0.12,0.1201,0.1201,0,0.0678,0.0717,0.0761,0.0817,0.0832,0.0855,0.09,0.0931,0.0976,0.0999,0.1031,0.1062,0.1096,0.1108,0.1154,0.1149,0.117,0.1191,0.1192,0.1198,0.1211,0.1196,0.1178,0.1177,0.1202,0.1202,0.1202,0,0.0648,0.0712,0.0746,0.0768,0.0834,0.0849,0.0878,0.0924,0.0949,0.0988,0.1005,0.1048,0.1072,0.1104,0.1146,0.1151,0.1187,0.1203,0.1207,0.1205,0.1213,0.1212,0.1197,0.1226,0.1226,0.1226,0.1226,0,0.0645,0.067,0.0733,0.0754,0.0782,0.0828,0.0855,0.0887,0.0927,0.0955,0.0993,0.1018,0.1072,0.1103,0.1136,0.1169,0.1179,0.1198,0.1206,0.1195,0.1192,0.1209,0.121,0.1226,0.1226,0.1226,0.1226,0,0.0617,0.066,0.07,0.0759,0.0774,0.0793,0.0843,0.0865,0.0898,0.0932,0.0943,0.0996,0.1035,0.1079,0.1133,0.1155,0.1185,0.1197,0.1169,0.1174,0.1174,0.1173,0.117,0.1172,0.1199,0.1199,0.1198,0,0.0613,0.0633,0.0693,0.0714,0.0741,0.0774,0.0799,0.0845,0.087,0.0922,0.0937,0.0978,0.1014,0.1073,0.1116,0.1157,0.1171,0.1167,0.1177,0.1164,0.117,0.1168,0.117,0.1164,0.1163,0.1163,0.1163,0,0.06,0.062,0.0655,0.0696,0.0725,0.076,0.0797,0.0812,0.0864,0.089,0.0929,0.0957,0.101,0.105,0.1096,0.1125,0.1152,0.1159,0.1161,0.115,0.1132,0.1141,0.1161,0.1159,0.1159,0.1159,0.116,0.116,0.0584,0.0603,0.0648,0.0685,0.0717,0.0749,0.0772,0.0808,0.0841,0.0888,0.0913,0.0951,0.0995,0.1059,0.1087,0.1118,0.1127,0.1131,0.1132,0.1132,0.1129,0.1127,0.1126,0.1126,0.1126,0.1127,0.1127,0,0.0573,0.0603,0.0636,0.0686,0.0714,0.0736,0.0778,0.08,0.0833,0.0872,0.0905,0.0949,0.0988,0.1033,0.1074,0.109,0.1103,0.1099,0.1099,0.1105,0.1118,0.1111,0.1088,0.1088,0.1088,0.1088,0.1088,0.1088,0.057,0.0603,0.0627,0.0676,0.0706,0.0744,0.0765,0.0795,0.0826,0.0874,0.0905,0.0934,0.0975,0.1019,0.1055,0.1068,0.1081,0.1073,0.1089,0.1101,0.1104,0.1107,0.1101,0.1076,0.1076,0.1073,0.1073,0.1073]},{"header":{"parameterUnit":"m.s-1","parameterCategory":1,"la1":30.2991,"la2":30.254,"lo1":-89.0895,"lo2":-89.0444,"dy":0.0017,"dx":0.0017,"nx":28,"ny":28,"refTime":"2024-02-02T03:00:00:Z","depth":0,"parameterNumber":3,"parameterNumberName":"V-component_of_WINDS"},"data":[0,0,0,0,0,0,0,0,0,0,0,0,0,0,0,0,0,0,0,0,0,0,0,0,0,0,0,0,0,0,0,0,0,0,0,0,0,0,0,0,0,0,0,0,0,0,0,0,0,0,0,0,0,0,0,0,0,0,1.1407,1.1406,0,1.1356,1.1356,1.1355,1.1377,1.1378,1.1379,1.1381,1.1324,1.1321,1.1319,0,0,0,0,0,0,0,0,0,0,0,0,0,1.1517,1.1514,1.1407,1.1406,1.1405,1.1356,1.1356,1.1355,1.1377,1.1378,1.138,1.1381,1.1325,1.1322,1.1318,0,0,0,0,0,0,0,0,0,0,0,0,0,1.1468,1.1514,1.1407,1.141,1.141,1.1357,1.1356,1.1355,1.1376,1.1378,1.138,1.1382,1.1326,1.1322,1.1318,1.1256,0,0,1.1306,1.1304,0,0,0,0,0,0,0,0,1.147,1.1464,1.141,1.141,1.141,1.1375,1.1374,1.1322,1.1376,1.1389,1.1381,1.1383,1.1339,1.1334,1.132,1.1254,1.1251,1.1305,1.1303,1.1301,1.13,0,0,0,0,0,0,0,1.1474,1.1466,1.1387,1.141,1.1409,1.1413,1.1408,1.1364,1.1354,1.1388,1.139,1.1384,1.1339,1.1324,1.1319,1.125,1.1305,1.1302,1.1299,1.1298,1.1129,1.1127,0,0,0,0,0,0,1.1478,1.1469,1.1388,1.1385,1.1445,1.1409,1.1404,1.1384,1.1355,1.1352,1.1382,1.1385,1.133,1.1324,1.1317,1.1242,1.1301,1.1298,1.1295,1.1132,1.1129,1.1127,0,0,0,0,0,0,1.148,1.147,1.139,1.1427,1.1417,1.1406,1.1383,1.1382,1.1367,1.135,1.1348,1.1369,1.1331,1.1323,1.1271,1.1241,1.1296,1.1292,1.1134,1.1131,1.1128,1.1093,0,0,0,0,0,0,1.1483,1.1471,1.1449,1.1427,1.1415,1.1346,1.1381,1.138,1.1361,1.1364,1.1337,1.1334,1.1332,1.1277,1.1267,1.1236,1.1289,1.1137,1.1133,1.1129,1.1096,1.1089,1.1082,0,0,0,0,0,1.1487,1.144,1.1447,1.1438,1.1387,1.1345,1.1338,1.1338,1.1358,1.1335,1.1324,1.1335,1.1246,1.1272,1.1261,1.1228,1.1139,1.1134,1.1129,1.11,1.109,1.1082,0,0,0,0,0,0,1.1456,1.1437,1.1445,1.139,1.1369,1.1349,1.1319,1.1328,1.1299,1.1303,1.1303,1.1296,1.1243,1.1231,1.126,1.1166,1.1195,1.1188,1.1176,1.1167,1.116,1.1164,1.1286,0,0,0,0,0,1.1444,1.1413,1.1396,1.1349,1.1338,1.133,1.1312,1.1314,1.1291,1.1282,1.1267,1.1244,1.1211,1.1188,1.1157,1.1095,1.1089,1.1067,1.106,1.1054,1.1047,1.1013,1.1003,1.1111,1.1111,1.1112,0,0,1.1416,1.1402,1.1381,1.1342,1.1327,1.1293,1.1323,1.1286,1.126,1.1276,1.1227,1.1215,1.1189,1.1132,1.1106,1.112,1.1016,1.1048,1.1044,1.104,1.1007,1.0997,1.0988,1.1108,1.1109,1.1109,0,0,1.1348,1.1335,1.1294,1.1278,1.1254,1.1249,1.1239,1.1217,1.1211,1.1162,1.1173,1.1142,1.1085,1.1065,1.1048,1.0974,1.0982,1.0963,1.0925,1.0891,1.0883,1.0875,1.0848,1.0838,1.0957,1.0957,1.0957,0,1.1316,1.1268,1.1271,1.1233,1.1215,1.123,1.1187,1.1171,1.1137,1.1123,1.114,1.1069,1.1052,1.099,1.0972,1.0958,1.0946,1.0966,1.0884,1.0877,1.0869,1.0843,1.0833,1.0955,1.0955,1.0955,1.0955,0,1.1229,1.1195,1.1164,1.1133,1.1112,1.1071,1.1067,1.1045,1.1048,1.1041,1.0991,1.0972,1.0936,1.0922,1.0924,1.086,1.087,1.0885,1.0914,1.0857,1.0832,1.0822,1.0951,1.0952,1.0953,1.0953,0,0,1.1139,1.1112,1.11,1.1086,1.1061,1.1034,1.0994,1.0961,1.0942,1.0918,1.0883,1.0835,1.085,1.083,1.083,1.0801,1.0742,1.082,1.082,1.0805,1.0669,1.0657,1.0645,1.0749,1.0747,1.0745,1.0671,0,1.1069,1.1001,1.1003,1.0938,1.0906,1.092,1.0885,1.0865,1.0858,1.0828,1.0819,1.0785,1.0807,1.0795,1.0767,1.0755,1.0715,1.0761,1.0715,1.0713,1.072,1.0632,1.0619,1.0549,1.0661,1.066,1.0658,0,1.0978,1.0953,1.0886,1.0866,1.0852,1.0821,1.0791,1.0763,1.074,1.0737,1.0715,1.0721,1.0678,1.071,1.0651,1.0682,1.0663,1.0655,1.0652,1.0647,1.0681,1.0623,1.0527,1.0516,1.0643,1.0645,1.0646,0,1.0917,1.0867,1.0821,1.0808,1.0784,1.0762,1.075,1.073,1.071,1.0683,1.067,1.0638,1.062,1.0594,1.059,1.0614,1.0531,1.0562,1.0525,1.0525,1.0506,1.0507,1.0404,1.0496,1.0496,1.0496,1.0496,0,1.0838,1.0796,1.0793,1.0764,1.0718,1.072,1.0673,1.0663,1.0645,1.0613,1.0623,1.0593,1.059,1.0558,1.0555,1.0506,1.0498,1.0493,1.0492,1.0491,1.0492,1.0478,1.0482,1.0493,1.0494,1.0495,1.0495,0,1.0762,1.0759,1.0709,1.0691,1.0685,1.0651,1.0635,1.0606,1.0601,1.056,1.0551,1.0541,1.0504,1.0498,1.0454,1.0452,1.0393,1.0398,1.0401,1.0401,1.0365,1.0368,1.0249,1.0233,1.0336,1.0335,1.0334,0,1.0711,1.0679,1.0658,1.0639,1.0626,1.0595,1.0575,1.0575,1.0554,1.0526,1.0501,1.0466,1.0437,1.0378,1.0365,1.0332,1.0335,1.0296,1.033,1.033,1.0333,1.0335,1.0331,1.0289,1.0288,1.0287,1.0286,0,1.062,1.062,1.0592,1.0563,1.054,1.0517,1.0495,1.0478,1.0476,1.0451,1.0414,1.0393,1.0349,1.0313,1.028,1.0267,1.0275,1.0276,1.0265,1.0263,1.0266,1.0263,1.0382,1.0278,1.0279,1.0279,1.028,1.028,1.0554,1.0527,1.0507,1.0476,1.046,1.0439,1.0412,1.0403,1.0373,1.0339,1.0341,1.03,1.0278,1.0235,1.0219,1.0187,1.0199,1.0184,1.018,1.0176,1.0172,1.0273,1.0181,1.0181,1.0181,1.0181,1.0182,0,1.0463,1.0451,1.0422,1.0392,1.0367,1.038,1.0356,1.0333,1.0298,1.0278,1.025,1.0208,1.0174,1.0159,1.0125,1.0101,1.0104,1.0092,1.0093,1.009,1.0163,1.0175,1.0091,1.0091,1.0091,1.0091,1.0091,1.0091,1.0412,1.0366,1.0364,1.0309,1.0298,1.0259,1.0245,1.0225,1.0209,1.0162,1.0134,1.0126,1.0107,1.0072,1.004,1.0037,1.0023,1.0009,1.0007,1.0075,1.0085,1.0093,1.0105,1.0006,1.0006,0.9936,0.9935,0.9935]}]]